Tracking 19709 objects as of 20-Jun-2019
HD Live streaming from Space Station
objects crossing your sky now

FENGYUN 1C DEB

Track FENGYUN 1C DEB now!
10-day predictions


NORAD ID: 30464
Int'l Code: 1999-025AGB
Perigee: 787.8 km
Apogee: 948.9 km
Inclination: 99.1 °
Period: 102.2 minutes
Semi major axis: 7239 km
RCS: 0.029 m2 (small)
Launch date: May 10, 1999
Source: People's Republic of China (PRC)
Launch site: Taiyaun Space Center, China (TSC)

Note: This is SATELLITE DEBRIS
aabbcc
Your satellite tracking list
Your tracking list is empty




NASA's NSSDC Master Catalog

Two Line Element Set (TLE):
1 30464U 99025AGB 19170.89133311 -.00000114  00000-0 -37177-4 0  9996
2 30464  99.1379 188.6236 0111303  68.3540  50.5229 14.09460439637791
Source of the keplerian elements: AFSPC